Regional Weather Roundup
Issued by NWS Cleveland, OH

Home | Current Version | Previous Version | Text Only | Print | Product List | Glossary Off
Versions: 1 2 3 4 5 6 7 8 9 10 11 12 13 14 15 16 17 18 19 20 21 22 23 24 25 26 27 28 29 30 31 32 33 34 35 36 37 38 39 40 41 42 43 44 45 46 47 48 49 50

000
ASUS41 KCLE 291600
RWRCLE
OHIO REGIONAL WEATHER ROUNDUP
NATIONAL WEATHER SERVICE WILMINGTON, OH
1200 PM EDT FRI MAY 29 2015

NOTE: "FAIR" INDICATES FEW OR NO CLOUDS BELOW 12,000 FEET WITH NO
SIGNIFICANT WEATHER AND/OR OBSTRUCTIONS TO VISIBILITY.

OHZ001>008-015>018-024>027-034-035-043-044-291700-
   NORTHWEST OHIO

CITY           SKY/WX    TMP DP  RH WIND       PRES   REMARKS
DEFIANCE       PTSUNNY   76  66  71 S7        30.13F
FINDLAY        CLOUDY    75  68  78 SW8       30.14R
TOLEDO EXPRESS CLOUDY    71  67  87 S8        30.13S
TOLEDO EXEC    RAIN      69  66  90 S5        30.15R VSB 1
LIMA           CLOUDY    75  66  73 S9        30.15R
$$

OHZ009>014-019>023-028>033-038-089-291700-
   NORTHEAST OHIO

CITY           SKY/WX    TMP DP  RH WIND       PRES   REMARKS
CLE-HOPKINS    CLOUDY    80  64  58 S12       30.16F
CLE-LAKEFRONT  PTSUNNY   81  63  54 S15G21    30.13F
CUY CO. ARPT   PTSUNNY   82  66  57 S12       30.16F
LORAIN-ELYRIA  PTSUNNY   78  63  59 S12       30.15F
ASHTABULA      MOSUNNY   78  62  57 S10       30.19S
AKRON-CANTON   CLOUDY    79  62  56 S9        30.18F
WOOSTER        NOT AVBL
MANSFIELD      PTSUNNY   79  64  60 S14       30.17S
YOUNGSTOWN     CLOUDY    78  61  55 S9G17     30.19F
$$

OHZ042-051>053-060>062-070>072-077>081-291700-
  SOUTHWEST OHIO

CITY           SKY/WX    TMP DP  RH WIND       PRES   REMARKS
CINC-COVINGTON PTSUNNY   76  68  76 S15       30.18R
CINC-LUNKEN    PTSUNNY   76  69  79 S12       30.18R
HAMILTON       PTSUNNY   77  67  71 VRB7G16   30.17S
DAYTON         NOT AVBL
WRIGHT-PAT AFB PTSUNNY   79  69  71 S10       30.16R
DAYTON GENERAL PTSUNNY   75  67  76 S13       30.17R
WILMINGTON     PTSUNNY   77  63  61 SW15      30.17R
$$

OHZ036-037-039>041-045>050-054>059-063>069-073>076-082>088-291700-
  CENTRAL AND SOUTHEAST OHIO

CITY           SKY/WX    TMP DP  RH WIND       PRES   REMARKS
COLUMBUS       CLOUDY    80  65  59 S14       30.16S
OSU AIRPORT    MOSUNNY   82  63  52 SW16G22   30.16S
BOLTON FIELD   MOSUNNY   81  64  57 S16G23    30.17R
RICKENBACK AFB NOT AVBL
NEWARK         PTSUNNY   80  67  64 S12       30.17R
MARION         PTSUNNY   81  65  58 S16       30.15F
LANCASTER      PTSUNNY   79  64  60 SW9       30.18R
ZANESVILLE     PTSUNNY   78  66  66 S9        30.18S
NEW PHILLY     PTSUNNY   82  66  58 SE7       30.19S
$$



USA.gov is the U.S. government's official web portal to all federal, state and local government web resources and services.